Location: Staunton
(38.1490°N, 79.0720°W)
Time: 11:42:15
(UTC-04:00)

ISS - Pass Details

Date: 29 May 2020
Orbit: 417 x 420 km, 51.6° (Epoch: 26 May)

Event Time Altitude Azimuth Distance (km) Brightness Sun altitude
Rises 22:35:20 0° 315° (NW) 2,364 1.7 -19.4°
Reaches altitude 10° 22:37:33 10° 324° (NW) 1,498 0.3 -19.7°
Maximum altitude 22:40:40 35° 33° (NNE) 689 -2.6 -20.1°
Enters shadow 22:41:06 34° 51° (NE) 712 -2.7 -20.1°
